Year,Month,Day,Hour,Minute,Value (Times are PST for temperature in C)
2009,04,28,00,00,8.20
2009,04,28,00,01,8.20
2009,04,28,00,02,8.20
2009,04,28,00,03,8.20
2009,04,28,00,04,8.20
2009,04,28,00,05,8.20
2009,04,28,00,06,8.20
2009,04,28,00,07,8.20
2009,04,28,00,08,8.20
2009,04,28,00,09,8.10
2009,04,28,00,10,8.10
2009,04,28,00,11,8.10
2009,04,28,00,12,8.10
2009,04,28,00,13,8.20
2009,04,28,00,14,8.20
2009,04,28,00,15,8.20
2009,04,28,00,16,8.20
2009,04,28,00,17,8.20
2009,04,28,00,18,8.20
2009,04,28,00,19,8.30
2009,04,28,00,20,8.30
2009,04,28,00,21,8.30
2009,04,28,00,22,8.30
2009,04,28,00,23,8.30
2009,04,28,00,24,8.30
2009,04,28,00,25,8.30
2009,04,28,00,26,8.30
2009,04,28,00,27,8.30
2009,04,28,00,28,8.30
2009,04,28,00,29,8.30
2009,04,28,00,30,8.30
2009,04,28,00,31,8.30
2009,04,28,00,32,8.30
2009,04,28,00,33,8.30
2009,04,28,00,34,8.30
2009,04,28,00,35,8.40
2009,04,28,00,36,8.40
2009,04,28,00,37,8.40
2009,04,28,00,38,8.40
2009,04,28,00,39,8.40
2009,04,28,00,40,8.40
2009,04,28,00,41,8.40
2009,04,28,00,42,8.50
2009,04,28,00,43,8.50
2009,04,28,00,44,8.50
2009,04,28,00,45,8.50
2009,04,28,00,46,8.50
2009,04,28,00,47,8.50
2009,04,28,00,48,8.50
2009,04,28,00,49,8.50
2009,04,28,00,50,8.50
2009,04,28,00,51,8.50
2009,04,28,00,52,8.50
2009,04,28,00,53,8.50
2009,04,28,00,54,8.50
2009,04,28,00,55,8.50
2009,04,28,00,56,8.50
2009,04,28,00,57,8.50
2009,04,28,00,58,8.60
2009,04,28,00,59,8.60
2009,04,28,01,00,8.60
2009,04,28,01,01,8.60
2009,04,28,01,02,8.60
2009,04,28,01,03,8.60
2009,04,28,01,04,8.60
2009,04,28,01,05,8.60
2009,04,28,01,06,8.60
2009,04,28,01,07,8.60
2009,04,28,01,08,8.60
2009,04,28,01,09,8.60
2009,04,28,01,10,8.60
2009,04,28,01,11,8.60
2009,04,28,01,12,8.60
2009,04,28,01,13,8.60
2009,04,28,01,14,8.60
2009,04,28,01,15,8.60
2009,04,28,01,16,8.60
2009,04,28,01,17,8.60
2009,04,28,01,18,8.60
2009,04,28,01,19,8.60
2009,04,28,01,20,8.60
2009,04,28,01,21,8.60
2009,04,28,01,22,8.60
2009,04,28,01,23,8.70
2009,04,28,01,24,8.70
2009,04,28,01,25,8.80
2009,04,28,01,26,8.90
2009,04,28,01,27,9.00
2009,04,28,01,28,9.10
2009,04,28,01,29,9.20
2009,04,28,01,30,9.30
2009,04,28,01,31,9.40
2009,04,28,01,32,9.60
2009,04,28,01,33,9.80
2009,04,28,01,34,9.90
2009,04,28,01,35,10.00
2009,04,28,01,36,10.10
2009,04,28,01,37,10.10
2009,04,28,01,38,10.20
2009,04,28,01,39,10.20
2009,04,28,01,40,10.20
2009,04,28,01,41,10.20
2009,04,28,01,42,10.20
2009,04,28,01,43,10.20
2009,04,28,01,44,10.10
2009,04,28,01,45,10.10
2009,04,28,01,46,10.10
2009,04,28,01,47,10.20
2009,04,28,01,48,10.20
2009,04,28,01,49,10.20
2009,04,28,01,50,10.20
2009,04,28,01,51,10.20
2009,04,28,01,52,10.20
2009,04,28,01,53,10.10
2009,04,28,01,54,10.10
2009,04,28,01,55,10.10
2009,04,28,01,56,10.00
2009,04,28,01,57,10.00
2009,04,28,01,58,9.90
2009,04,28,01,59,9.90
2009,04,28,02,00,9.90
2009,04,28,02,01,9.90
2009,04,28,02,02,10.00
2009,04,28,02,03,10.10
2009,04,28,02,04,10.00
2009,04,28,02,05,10.00
2009,04,28,02,06,9.90
2009,04,28,02,07,9.80
2009,04,28,02,08,9.70
2009,04,28,02,09,9.60
2009,04,28,02,10,9.50
2009,04,28,02,11,9.40
2009,04,28,02,12,9.30
2009,04,28,02,13,9.20
2009,04,28,02,14,9.20
2009,04,28,02,15,9.10
2009,04,28,02,16,9.00
2009,04,28,02,17,8.90
2009,04,28,02,18,8.80
2009,04,28,02,19,8.70
2009,04,28,02,20,8.60
2009,04,28,02,21,8.60
2009,04,28,02,22,8.50
2009,04,28,02,23,8.40
2009,04,28,02,24,8.30
2009,04,28,02,25,8.20
2009,04,28,02,26,8.10
2009,04,28,02,27,8.10
2009,04,28,02,28,8.00
2009,04,28,02,29,7.90
2009,04,28,02,30,7.90
2009,04,28,02,31,7.80
2009,04,28,02,32,7.80
2009,04,28,02,33,7.70
2009,04,28,02,34,7.70
2009,04,28,02,35,7.60
2009,04,28,02,36,7.60
2009,04,28,02,37,7.50
2009,04,28,02,38,7.40
2009,04,28,02,39,7.40
2009,04,28,02,40,7.30
2009,04,28,02,41,7.30
2009,04,28,02,42,7.20
2009,04,28,02,43,7.20
2009,04,28,02,44,7.20
2009,04,28,02,45,7.30
2009,04,28,02,46,7.30
2009,04,28,02,47,7.30
2009,04,28,02,48,7.30
2009,04,28,02,49,7.30
2009,04,28,02,50,7.30
2009,04,28,02,51,7.30
2009,04,28,02,52,7.30
2009,04,28,02,53,7.30
2009,04,28,02,54,7.30
2009,04,28,02,55,7.30
2009,04,28,02,56,7.30
2009,04,28,02,57,7.30
2009,04,28,02,58,7.30
2009,04,28,02,59,7.30
2009,04,28,03,00,7.20
2009,04,28,03,01,7.20
2009,04,28,03,02,7.20
2009,04,28,03,03,7.20
2009,04,28,03,04,7.20
2009,04,28,03,05,7.20
2009,04,28,03,06,7.20
2009,04,28,03,07,7.20
2009,04,28,03,08,7.20
2009,04,28,03,09,7.20
2009,04,28,03,10,7.20
2009,04,28,03,11,7.20
2009,04,28,03,12,7.20
2009,04,28,03,13,7.20
2009,04,28,03,14,7.20
2009,04,28,03,15,7.20
2009,04,28,03,16,7.20
2009,04,28,03,17,7.20
2009,04,28,03,18,7.20
2009,04,28,03,19,7.20
2009,04,28,03,20,7.20
2009,04,28,03,21,7.20
2009,04,28,03,22,7.20
2009,04,28,03,23,7.20
2009,04,28,03,24,7.20
2009,04,28,03,25,7.20
2009,04,28,03,26,7.20
2009,04,28,03,27,7.20
2009,04,28,03,28,7.20
2009,04,28,03,29,7.20
2009,04,28,03,30,7.20
2009,04,28,03,31,7.20
2009,04,28,03,32,7.20
2009,04,28,03,33,7.20
2009,04,28,03,34,7.30
2009,04,28,03,35,7.20
2009,04,28,03,36,7.20
2009,04,28,03,37,7.20
2009,04,28,03,38,7.20
2009,04,28,03,39,7.20
2009,04,28,03,40,7.20
2009,04,28,03,41,7.20
2009,04,28,03,42,7.20
2009,04,28,03,43,7.20
2009,04,28,03,44,7.20
2009,04,28,03,45,7.20
2009,04,28,03,46,7.20
2009,04,28,03,47,7.20
2009,04,28,03,48,7.20
2009,04,28,03,49,7.20
2009,04,28,03,50,7.20
2009,04,28,03,51,7.20
2009,04,28,03,52,7.20
2009,04,28,03,53,7.20
2009,04,28,03,54,7.20
2009,04,28,03,55,7.20
2009,04,28,03,56,7.10
2009,04,28,03,57,7.10
2009,04,28,03,58,7.10
2009,04,28,03,59,7.10
2009,04,28,04,00,7.00
2009,04,28,04,01,7.00
2009,04,28,04,02,7.00
2009,04,28,04,03,6.90
2009,04,28,04,04,6.90
2009,04,28,04,05,6.90
2009,04,28,04,06,6.90
2009,04,28,04,07,6.80
2009,04,28,04,08,6.80
2009,04,28,04,09,6.80
2009,04,28,04,10,6.80
2009,04,28,04,11,6.80
2009,04,28,04,12,6.80
2009,04,28,04,13,6.80
2009,04,28,04,14,6.70
2009,04,28,04,15,6.70
2009,04,28,04,16,6.70
2009,04,28,04,17,6.70
2009,04,28,04,18,6.70
2009,04,28,04,19,6.70
2009,04,28,04,20,6.70
2009,04,28,04,21,6.70
2009,04,28,04,22,6.60
2009,04,28,04,23,6.60
2009,04,28,04,24,6.60
2009,04,28,04,25,6.60
2009,04,28,04,26,6.60
2009,04,28,04,27,6.60
2009,04,28,04,28,6.60
2009,04,28,04,29,6.60
2009,04,28,04,30,6.60
2009,04,28,04,31,6.60
2009,04,28,04,32,6.60
2009,04,28,04,33,6.50
2009,04,28,04,34,6.50
2009,04,28,04,35,6.50
2009,04,28,04,36,6.40
2009,04,28,04,37,6.40
2009,04,28,04,38,6.40
2009,04,28,04,39,6.40
2009,04,28,04,40,6.30
2009,04,28,04,41,6.30
2009,04,28,04,42,6.30
2009,04,28,04,43,6.30
2009,04,28,04,44,6.30
2009,04,28,04,45,6.30
2009,04,28,04,46,6.30
2009,04,28,04,47,6.20
2009,04,28,04,48,6.20
2009,04,28,04,49,6.20
2009,04,28,04,50,6.20
2009,04,28,04,51,6.20
2009,04,28,04,52,6.20
2009,04,28,04,53,6.10
2009,04,28,04,54,6.10
2009,04,28,04,55,6.10
2009,04,28,04,56,6.10
2009,04,28,04,57,6.10
2009,04,28,04,58,6.10
2009,04,28,04,59,6.10
2009,04,28,05,00,6.10
2009,04,28,05,01,6.10
2009,04,28,05,02,6.00
2009,04,28,05,03,6.00
2009,04,28,05,04,6.00
2009,04,28,05,05,6.00
2009,04,28,05,06,6.00
2009,04,28,05,07,5.90
2009,04,28,05,08,5.90
2009,04,28,05,09,5.90
2009,04,28,05,10,5.90
2009,04,28,05,11,5.90
2009,04,28,05,12,5.90
2009,04,28,05,13,5.80
2009,04,28,05,14,5.80
2009,04,28,05,15,5.80
2009,04,28,05,16,5.80
2009,04,28,05,17,5.80
2009,04,28,05,18,5.80
2009,04,28,05,19,5.80
2009,04,28,05,20,5.80
2009,04,28,05,21,5.70
2009,04,28,05,22,5.70
2009,04,28,05,23,5.70
2009,04,28,05,24,5.70
2009,04,28,05,25,5.70
2009,04,28,05,26,5.70
2009,04,28,05,27,5.60
2009,04,28,05,28,5.60
2009,04,28,05,29,5.60
2009,04,28,05,30,5.60
2009,04,28,05,31,5.60
2009,04,28,05,32,5.50
2009,04,28,05,33,5.50
2009,04,28,05,34,5.50
2009,04,28,05,35,5.50
2009,04,28,05,36,5.50
2009,04,28,05,37,5.50
2009,04,28,05,38,5.40
2009,04,28,05,39,5.40
2009,04,28,05,40,5.40
2009,04,28,05,41,5.50
2009,04,28,05,42,5.50
2009,04,28,05,43,5.50
2009,04,28,05,44,5.50
2009,04,28,05,45,5.50
2009,04,28,05,46,5.40
2009,04,28,05,47,5.40
2009,04,28,05,48,5.40
2009,04,28,05,49,5.40
2009,04,28,05,50,5.40
2009,04,28,05,51,5.40
2009,04,28,05,52,5.40
2009,04,28,05,53,5.40
2009,04,28,05,54,5.40
2009,04,28,05,55,5.40
2009,04,28,05,56,5.40
2009,04,28,05,57,5.40
2009,04,28,05,58,5.40
2009,04,28,05,59,5.40
2009,04,28,06,00,5.40
2009,04,28,06,01,5.40
2009,04,28,06,02,5.40
2009,04,28,06,03,5.40
2009,04,28,06,04,5.40
2009,04,28,06,05,5.40
2009,04,28,06,06,5.40
2009,04,28,06,07,5.40
2009,04,28,06,08,5.50
2009,04,28,06,09,5.50
2009,04,28,06,10,5.50
2009,04,28,06,11,5.50
2009,04,28,06,12,5.50
2009,04,28,06,13,5.50
2009,04,28,06,14,5.50
2009,04,28,06,15,5.50
2009,04,28,06,16,5.50
2009,04,28,06,17,5.50
2009,04,28,06,18,5.60
2009,04,28,06,19,5.60
2009,04,28,06,20,5.60
2009,04,28,06,21,5.60
2009,04,28,06,22,5.60
2009,04,28,06,23,5.60
2009,04,28,06,24,5.60
2009,04,28,06,25,5.60
2009,04,28,06,26,5.60
2009,04,28,06,27,5.60
2009,04,28,06,28,5.70
2009,04,28,06,29,5.70
2009,04,28,06,30,5.70
2009,04,28,06,31,5.80
2009,04,28,06,32,5.80
2009,04,28,06,33,5.80
2009,04,28,06,34,5.90
2009,04,28,06,35,5.90
2009,04,28,06,36,5.90
2009,04,28,06,37,6.00
2009,04,28,06,38,6.00
2009,04,28,06,39,6.00
2009,04,28,06,40,6.10
2009,04,28,06,41,6.10
2009,04,28,06,42,6.20
2009,04,28,06,43,6.20
2009,04,28,06,44,6.20
2009,04,28,06,45,6.30
2009,04,28,06,46,6.30
2009,04,28,06,47,6.40
2009,04,28,06,48,6.40
2009,04,28,06,49,6.50
2009,04,28,06,50,6.50
2009,04,28,06,51,6.60
2009,04,28,06,52,6.60
2009,04,28,06,53,6.60
2009,04,28,06,54,6.60
2009,04,28,06,55,6.60
2009,04,28,06,56,6.60
2009,04,28,06,57,6.60
2009,04,28,06,58,6.60
2009,04,28,06,59,6.60
2009,04,28,07,00,6.60
2009,04,28,07,01,6.60
2009,04,28,07,02,6.60
2009,04,28,07,03,6.70
2009,04,28,07,04,6.70
2009,04,28,07,05,6.80
2009,04,28,07,06,6.80
2009,04,28,07,07,6.80
2009,04,28,07,08,6.80
2009,04,28,07,09,6.90
2009,04,28,07,10,7.00
2009,04,28,07,11,7.00
2009,04,28,07,12,7.20
2009,04,28,07,13,7.20
2009,04,28,07,14,7.30
2009,04,28,07,15,7.40
2009,04,28,07,16,7.50
2009,04,28,07,17,7.60
2009,04,28,07,18,7.60
2009,04,28,07,19,7.60
2009,04,28,07,20,7.70
2009,04,28,07,21,7.70
2009,04,28,07,22,7.70
2009,04,28,07,23,7.70
2009,04,28,07,24,7.70
2009,04,28,07,25,7.80
2009,04,28,07,26,7.80
2009,04,28,07,27,7.90
2009,04,28,07,28,7.90
2009,04,28,07,29,7.90
2009,04,28,07,30,8.00
2009,04,28,07,31,8.00
2009,04,28,07,32,8.10
2009,04,28,07,33,8.10
2009,04,28,07,34,8.10
2009,04,28,07,35,8.10
2009,04,28,07,36,8.10
2009,04,28,07,37,8.10
2009,04,28,07,38,8.10
2009,04,28,07,39,8.10
2009,04,28,07,40,8.10
2009,04,28,07,41,8.10
2009,04,28,07,42,8.10
2009,04,28,07,43,8.20
2009,04,28,07,44,8.20
2009,04,28,07,45,8.20
2009,04,28,07,46,8.20
2009,04,28,07,47,8.30
2009,04,28,07,48,8.30
2009,04,28,07,49,8.40
2009,04,28,07,50,8.50
2009,04,28,07,51,8.50
2009,04,28,07,52,8.60
2009,04,28,07,53,8.60
2009,04,28,07,54,8.70
2009,04,28,07,55,8.80
2009,04,28,07,56,8.80
2009,04,28,07,57,8.80
2009,04,28,07,58,8.90
2009,04,28,07,59,8.90
2009,04,28,08,00,9.00
2009,04,28,08,01,9.00
2009,04,28,08,02,9.10
2009,04,28,08,03,9.10
2009,04,28,08,04,9.20
2009,04,28,08,05,9.20
2009,04,28,08,06,9.20
2009,04,28,08,07,9.20
2009,04,28,08,08,9.30
2009,04,28,08,09,9.30
2009,04,28,08,10,9.30
2009,04,28,08,11,9.40
2009,04,28,08,12,9.40
2009,04,28,08,13,9.40
2009,04,28,08,14,9.50
2009,04,28,08,15,9.50
2009,04,28,08,16,9.50
2009,04,28,08,17,9.60
2009,04,28,08,18,9.60
2009,04,28,08,19,9.60
2009,04,28,08,20,9.60
2009,04,28,08,21,9.60
2009,04,28,08,22,9.70
2009,04,28,08,23,9.70
2009,04,28,08,24,9.70
2009,04,28,08,25,9.70
2009,04,28,08,26,9.70
2009,04,28,08,27,9.70
2009,04,28,08,28,9.70
2009,04,28,08,29,9.80
2009,04,28,08,30,9.80
2009,04,28,08,31,9.80
2009,04,28,08,32,9.80
2009,04,28,08,33,9.80
2009,04,28,08,34,9.80
2009,04,28,08,35,9.80
2009,04,28,08,36,9.80
2009,04,28,08,37,9.80
2009,04,28,08,38,9.80
2009,04,28,08,39,9.90
2009,04,28,08,40,9.90
2009,04,28,08,41,9.90
2009,04,28,08,42,9.90
2009,04,28,08,43,10.00
2009,04,28,08,44,10.00
2009,04,28,08,45,10.10
2009,04,28,08,46,10.10
2009,04,28,08,47,10.20
2009,04,28,08,48,10.20
2009,04,28,08,49,10.20
2009,04,28,08,50,10.20
2009,04,28,08,51,10.30
2009,04,28,08,52,10.30
2009,04,28,08,53,10.30
2009,04,28,08,54,10.40
2009,04,28,08,55,10.40
2009,04,28,08,56,10.50
2009,04,28,08,57,10.50
2009,04,28,08,58,10.60
2009,04,28,08,59,10.60
2009,04,28,09,00,10.60
2009,04,28,09,01,10.60
2009,04,28,09,02,10.70
2009,04,28,09,03,10.70
2009,04,28,09,04,10.70
2009,04,28,09,05,10.80
2009,04,28,09,06,10.80
2009,04,28,09,07,10.80
2009,04,28,09,08,10.80
2009,04,28,09,09,10.80
2009,04,28,09,10,10.80
2009,04,28,09,11,10.80
2009,04,28,09,12,10.80
2009,04,28,09,13,10.80
2009,04,28,09,14,10.80
2009,04,28,09,15,10.80
2009,04,28,09,16,10.80
2009,04,28,09,17,10.80
2009,04,28,09,18,10.80
2009,04,28,09,19,10.80
2009,04,28,09,20,10.90
2009,04,28,09,21,10.90
2009,04,28,09,22,10.90
2009,04,28,09,23,11.00
2009,04,28,09,24,11.00
2009,04,28,09,25,11.10
2009,04,28,09,26,11.20
2009,04,28,09,27,11.20
2009,04,28,09,28,11.20
2009,04,28,09,29,11.30
2009,04,28,09,30,11.30
2009,04,28,09,31,11.30
2009,04,28,09,32,11.30
2009,04,28,09,33,11.40
2009,04,28,09,34,11.50
2009,04,28,09,35,11.50
2009,04,28,09,36,11.60
2009,04,28,09,37,11.70
2009,04,28,09,38,11.80
2009,04,28,09,39,11.80
2009,04,28,09,40,11.90
2009,04,28,09,41,11.90
2009,04,28,09,42,12.00
2009,04,28,09,43,12.00
2009,04,28,09,44,12.10
2009,04,28,09,45,12.20
2009,04,28,09,46,12.20
2009,04,28,09,47,12.30
2009,04,28,09,48,12.40
2009,04,28,09,49,12.50
2009,04,28,09,50,12.60
2009,04,28,09,51,12.70
2009,04,28,09,52,12.80
2009,04,28,09,53,12.80
2009,04,28,09,54,12.90
2009,04,28,09,55,12.90
2009,04,28,09,56,13.00
2009,04,28,09,57,13.10
2009,04,28,09,58,13.20
2009,04,28,09,59,13.20
2009,04,28,10,00,13.30
2009,04,28,10,01,13.30
2009,04,28,10,02,13.30
2009,04,28,10,03,13.40
2009,04,28,10,04,13.40
2009,04,28,10,05,13.40
2009,04,28,10,06,13.40
2009,04,28,10,07,13.50
2009,04,28,10,08,13.60
2009,04,28,10,09,13.60
2009,04,28,10,10,13.70
2009,04,28,10,11,13.70
2009,04,28,10,12,13.80
2009,04,28,10,13,13.80
2009,04,28,10,14,13.80
2009,04,28,10,15,13.90
2009,04,28,10,16,13.80
2009,04,28,10,17,13.80
2009,04,28,10,18,13.80
2009,04,28,10,19,13.80
2009,04,28,10,20,13.80
2009,04,28,10,21,13.80
2009,04,28,10,22,13.70
2009,04,28,10,23,13.70
2009,04,28,10,24,13.70
2009,04,28,10,25,13.70
2009,04,28,10,26,13.80
2009,04,28,10,27,13.80
2009,04,28,10,28,13.80
2009,04,28,10,29,13.70
2009,04,28,10,30,13.70
2009,04,28,10,31,13.60
2009,04,28,10,32,13.60
2009,04,28,10,33,13.60
2009,04,28,10,34,13.60
2009,04,28,10,35,13.70
2009,04,28,10,36,13.80
2009,04,28,10,37,13.80
2009,04,28,10,38,13.90
2009,04,28,10,39,13.90
2009,04,28,10,40,13.90
2009,04,28,10,41,13.90
2009,04,28,10,42,13.90
2009,04,28,10,43,13.90
2009,04,28,10,44,14.00
2009,04,28,10,45,14.00
2009,04,28,10,46,14.00
2009,04,28,10,47,14.10
2009,04,28,10,48,14.00
2009,04,28,10,49,14.00
2009,04,28,10,50,13.90
2009,04,28,10,51,13.90
2009,04,28,10,52,13.90
2009,04,28,10,53,13.90
2009,04,28,10,54,13.90
2009,04,28,10,55,13.90
2009,04,28,10,56,13.90
2009,04,28,10,57,14.00
2009,04,28,10,58,14.10
2009,04,28,10,59,14.20
2009,04,28,11,00,14.20
2009,04,28,11,01,14.30
2009,04,28,11,02,14.30
2009,04,28,11,03,14.40
2009,04,28,11,04,14.50
2009,04,28,11,05,14.60
2009,04,28,11,06,14.60
2009,04,28,11,07,14.60
2009,04,28,11,08,14.60
2009,04,28,11,09,14.70
2009,04,28,11,10,14.80
2009,04,28,11,11,14.70
2009,04,28,11,12,14.70
2009,04,28,11,13,14.70
2009,04,28,11,14,14.60
2009,04,28,11,15,14.60
2009,04,28,11,16,14.60
2009,04,28,11,17,14.60
2009,04,28,11,18,14.60
2009,04,28,11,19,14.60
2009,04,28,11,20,14.50
2009,04,28,11,21,14.50
2009,04,28,11,22,14.50
2009,04,28,11,23,14.50
2009,04,28,11,24,14.60
2009,04,28,11,25,14.60
2009,04,28,11,26,14.50
2009,04,28,11,27,14.50
2009,04,28,11,28,14.50
2009,04,28,11,29,14.50
2009,04,28,11,30,14.40
2009,04,28,11,31,14.40
2009,04,28,11,32,14.40
2009,04,28,11,33,14.40
2009,04,28,11,34,14.50
2009,04,28,11,35,14.50
2009,04,28,11,36,14.60
2009,04,28,11,37,14.70
2009,04,28,11,38,14.70
2009,04,28,11,39,14.80
2009,04,28,11,40,14.90
2009,04,28,11,41,15.00
2009,04,28,11,42,15.00
2009,04,28,11,43,15.00
2009,04,28,11,44,15.00
2009,04,28,11,45,15.00
2009,04,28,11,46,15.00
2009,04,28,11,47,14.90
2009,04,28,11,48,14.80
2009,04,28,11,49,14.80
2009,04,28,11,50,14.70
2009,04,28,11,51,14.70
2009,04,28,11,52,14.60
2009,04,28,11,53,14.50
2009,04,28,11,54,14.60
2009,04,28,11,55,14.70
2009,04,28,11,56,14.80
2009,04,28,11,57,14.90
2009,04,28,11,58,15.00
2009,04,28,11,59,15.00
2009,04,28,12,00,15.00
2009,04,28,12,01,15.10
2009,04,28,12,02,15.00
2009,04,28,12,03,15.00
2009,04,28,12,04,15.00
2009,04,28,12,05,15.00
2009,04,28,12,06,15.00
2009,04,28,12,07,15.00
2009,04,28,12,08,15.00
2009,04,28,12,09,15.00
2009,04,28,12,10,15.00
2009,04,28,12,11,15.00
2009,04,28,12,12,15.00
2009,04,28,12,13,15.00
2009,04,28,12,14,15.00
2009,04,28,12,15,14.90
2009,04,28,12,16,15.00
2009,04,28,12,17,15.00
2009,04,28,12,18,15.00
2009,04,28,12,19,15.00
2009,04,28,12,20,15.00
2009,04,28,12,21,15.00
2009,04,28,12,22,15.00
2009,04,28,12,23,15.00
2009,04,28,12,24,15.00
2009,04,28,12,25,15.00
2009,04,28,12,26,14.90
2009,04,28,12,27,14.80
2009,04,28,12,28,14.80
2009,04,28,12,29,14.80
2009,04,28,12,30,14.80
2009,04,28,12,31,14.70
2009,04,28,12,32,14.70
2009,04,28,12,33,14.60
2009,04,28,12,34,14.60
2009,04,28,12,35,14.70
2009,04,28,12,36,14.80
2009,04,28,12,37,14.80
2009,04,28,12,38,14.90
2009,04,28,12,39,14.90
2009,04,28,12,40,14.80
2009,04,28,12,41,14.70
2009,04,28,12,42,14.60
2009,04,28,12,43,14.60
2009,04,28,12,44,14.70
2009,04,28,12,45,14.70
2009,04,28,12,46,14.70
2009,04,28,12,47,14.70
2009,04,28,12,48,14.70
2009,04,28,12,49,14.70
2009,04,28,12,50,14.80
2009,04,28,12,51,14.80
2009,04,28,12,52,14.70
2009,04,28,12,53,14.70
2009,04,28,12,54,14.70
2009,04,28,12,55,14.70
2009,04,28,12,56,14.70
2009,04,28,12,57,14.70
2009,04,28,12,58,14.70
2009,04,28,12,59,14.70
2009,04,28,13,00,14.70
2009,04,28,13,01,14.70
2009,04,28,13,02,14.70
2009,04,28,13,03,14.80
2009,04,28,13,04,14.80
2009,04,28,13,05,14.80
2009,04,28,13,06,14.90
2009,04,28,13,07,15.00
2009,04,28,13,08,15.00
2009,04,28,13,09,14.90
2009,04,28,13,10,14.90
2009,04,28,13,11,14.80
2009,04,28,13,12,14.80
2009,04,28,13,13,14.70
2009,04,28,13,14,14.70
2009,04,28,13,15,14.70
2009,04,28,13,16,14.70
2009,04,28,13,17,14.70
2009,04,28,13,18,14.70
2009,04,28,13,19,14.70
2009,04,28,13,20,14.70
2009,04,28,13,21,14.70
2009,04,28,13,22,14.80
2009,04,28,13,23,14.80
2009,04,28,13,24,14.80
2009,04,28,13,25,14.80
2009,04,28,13,26,14.90
2009,04,28,13,27,15.00
2009,04,28,13,28,15.00
2009,04,28,13,29,15.00
2009,04,28,13,30,15.10
2009,04,28,13,31,15.20
2009,04,28,13,32,15.20
2009,04,28,13,33,15.20
2009,04,28,13,34,15.00
2009,04,28,13,35,15.00
2009,04,28,13,36,14.90
2009,04,28,13,37,14.70
2009,04,28,13,38,14.70
2009,04,28,13,39,14.80
2009,04,28,13,40,14.80
2009,04,28,13,41,14.70
2009,04,28,13,42,14.60
2009,04,28,13,43,14.60
2009,04,28,13,44,14.60
2009,04,28,13,45,14.60
2009,04,28,13,46,14.60
2009,04,28,13,47,14.60
2009,04,28,13,48,14.60
2009,04,28,13,49,14.60
2009,04,28,13,50,14.60
2009,04,28,13,51,14.70
2009,04,28,13,52,14.80
2009,04,28,13,53,14.80
2009,04,28,13,54,14.80
2009,04,28,13,55,14.80
2009,04,28,13,56,14.80
2009,04,28,13,57,14.80
2009,04,28,13,58,14.90
2009,04,28,13,59,14.80
2009,04,28,14,00,14.80
2009,04,28,14,01,14.70
2009,04,28,14,02,14.80
2009,04,28,14,03,14.80
2009,04,28,14,04,14.90
2009,04,28,14,05,15.00
2009,04,28,14,06,15.00
2009,04,28,14,07,15.00
2009,04,28,14,08,15.00
2009,04,28,14,09,15.00
2009,04,28,14,10,15.10
2009,04,28,14,11,15.20
2009,04,28,14,12,15.30
2009,04,28,14,13,15.30
2009,04,28,14,14,15.30
2009,04,28,14,15,15.30
2009,04,28,14,16,15.30
2009,04,28,14,17,15.30
2009,04,28,14,18,15.30
2009,04,28,14,19,15.30
2009,04,28,14,20,15.30
2009,04,28,14,21,15.30
2009,04,28,14,22,15.40
2009,04,28,14,23,15.40
2009,04,28,14,24,15.40
2009,04,28,14,25,15.40
2009,04,28,14,26,15.40
2009,04,28,14,27,15.30
2009,04,28,14,28,15.30
2009,04,28,14,29,15.20
2009,04,28,14,30,15.20
2009,04,28,14,31,15.30
2009,04,28,14,32,15.40
2009,04,28,14,33,15.40
2009,04,28,14,34,15.50
2009,04,28,14,35,15.50
2009,04,28,14,36,15.60
2009,04,28,14,37,15.60
2009,04,28,14,38,15.70
2009,04,28,14,39,15.80
2009,04,28,14,40,15.90
2009,04,28,14,41,16.00
2009,04,28,14,42,16.10
2009,04,28,14,43,16.30
2009,04,28,14,44,16.30
2009,04,28,14,45,16.40
2009,04,28,14,46,16.50
2009,04,28,14,47,16.60
2009,04,28,14,48,16.60
2009,04,28,14,49,16.50
2009,04,28,14,50,16.40
2009,04,28,14,51,16.30
2009,04,28,14,52,16.30
2009,04,28,14,53,16.30
2009,04,28,14,54,16.30
2009,04,28,14,55,16.40
2009,04,28,14,56,16.60
2009,04,28,14,57,16.70
2009,04,28,14,58,16.80
2009,04,28,14,59,16.70
2009,04,28,15,00,16.50
2009,04,28,15,01,16.30
2009,04,28,15,02,16.10
2009,04,28,15,03,16.00
2009,04,28,15,04,15.90
2009,04,28,15,05,15.80
2009,04,28,15,06,15.80
2009,04,28,15,07,15.70
2009,04,28,15,08,15.70
2009,04,28,15,09,15.70
2009,04,28,15,10,15.70
2009,04,28,15,11,15.70
2009,04,28,15,12,15.80
2009,04,28,15,13,15.70
2009,04,28,15,14,15.70
2009,04,28,15,15,15.60
2009,04,28,15,16,15.60
2009,04,28,15,17,15.60
2009,04,28,15,18,15.60
2009,04,28,15,19,15.70
2009,04,28,15,20,15.60
2009,04,28,15,21,15.60
2009,04,28,15,22,15.60
2009,04,28,15,23,15.60
2009,04,28,15,24,15.60
2009,04,28,15,25,15.60
2009,04,28,15,26,15.50
2009,04,28,15,27,15.40
2009,04,28,15,28,15.40
2009,04,28,15,29,15.40
2009,04,28,15,30,15.40
2009,04,28,15,31,15.40
2009,04,28,15,32,15.40
2009,04,28,15,33,15.40
2009,04,28,15,34,15.40
2009,04,28,15,35,15.40
2009,04,28,15,36,15.40
2009,04,28,15,37,15.40
2009,04,28,15,38,15.50
2009,04,28,15,39,15.40
2009,04,28,15,40,15.50
2009,04,28,15,41,15.60
2009,04,28,15,42,15.60
2009,04,28,15,43,15.60
2009,04,28,15,44,15.60
2009,04,28,15,45,15.70
2009,04,28,15,46,15.70
2009,04,28,15,47,15.70
2009,04,28,15,48,15.70
2009,04,28,15,49,15.60
2009,04,28,15,50,15.70
2009,04,28,15,51,15.70
2009,04,28,15,52,15.70
2009,04,28,15,53,15.70
2009,04,28,15,54,15.80
2009,04,28,15,55,15.80
2009,04,28,15,56,15.90
2009,04,28,15,57,15.90
2009,04,28,15,58,16.10
2009,04,28,15,59,16.20
2009,04,28,16,00,16.20
2009,04,28,16,01,16.20
2009,04,28,16,02,16.30
2009,04,28,16,03,16.20
2009,04,28,16,04,16.10
2009,04,28,16,05,16.10
2009,04,28,16,06,16.10
2009,04,28,16,07,16.20
2009,04,28,16,08,16.30
2009,04,28,16,09,16.30
2009,04,28,16,10,16.30
2009,04,28,16,11,16.40
2009,04,28,16,12,16.50
2009,04,28,16,13,16.60
2009,04,28,16,14,16.60
2009,04,28,16,15,16.60
2009,04,28,16,16,16.40
2009,04,28,16,17,16.20
2009,04,28,16,18,16.20
2009,04,28,16,19,16.10
2009,04,28,16,20,16.10
2009,04,28,16,21,16.00
2009,04,28,16,22,16.00
2009,04,28,16,23,15.90
2009,04,28,16,24,15.90
2009,04,28,16,25,16.00
2009,04,28,16,26,16.10
2009,04,28,16,27,16.10
2009,04,28,16,28,16.10
2009,04,28,16,29,16.00
2009,04,28,16,30,16.00
2009,04,28,16,31,15.90
2009,04,28,16,32,15.90
2009,04,28,16,33,16.00
2009,04,28,16,34,15.90
2009,04,28,16,35,16.00
2009,04,28,16,36,16.00
2009,04,28,16,37,16.10
2009,04,28,16,38,16.10
2009,04,28,16,39,16.10
2009,04,28,16,40,16.10
2009,04,28,16,41,16.20
2009,04,28,16,42,16.20
2009,04,28,16,43,16.20
2009,04,28,16,44,16.30
2009,04,28,16,45,16.30
2009,04,28,16,46,16.40
2009,04,28,16,47,16.50
2009,04,28,16,48,16.50
2009,04,28,16,49,16.60
2009,04,28,16,50,16.70
2009,04,28,16,51,16.70
2009,04,28,16,52,16.70
2009,04,28,16,53,16.70
2009,04,28,16,54,16.70
2009,04,28,16,55,16.60
2009,04,28,16,56,16.60
2009,04,28,16,57,16.70
2009,04,28,16,58,16.80
2009,04,28,16,59,16.80
2009,04,28,17,00,16.70
2009,04,28,17,01,16.70
2009,04,28,17,02,16.70
2009,04,28,17,03,16.60
2009,04,28,17,04,16.60
2009,04,28,17,05,16.60
2009,04,28,17,06,16.50
2009,04,28,17,07,16.40
2009,04,28,17,08,16.40
2009,04,28,17,09,16.40
2009,04,28,17,10,16.40
2009,04,28,17,11,16.40
2009,04,28,17,12,16.50
2009,04,28,17,13,16.60
2009,04,28,17,14,16.70
2009,04,28,17,15,16.70
2009,04,28,17,16,16.60
2009,04,28,17,17,16.60
2009,04,28,17,18,16.50
2009,04,28,17,19,16.40
2009,04,28,17,20,16.30
2009,04,28,17,21,16.20
2009,04,28,17,22,16.20
2009,04,28,17,23,16.20
2009,04,28,17,24,16.20
2009,04,28,17,25,16.30
2009,04,28,17,26,16.30
2009,04,28,17,27,16.30
2009,04,28,17,28,16.30
2009,04,28,17,29,16.20
2009,04,28,17,30,16.20
2009,04,28,17,31,16.20
2009,04,28,17,32,16.20
2009,04,28,17,33,16.20
2009,04,28,17,34,16.30
2009,04,28,17,35,16.40
2009,04,28,17,36,16.40
2009,04,28,17,37,16.40
2009,04,28,17,38,16.40
2009,04,28,17,39,16.40
2009,04,28,17,40,16.40
2009,04,28,17,41,16.40